Meteo Giornale » Osservazioni meteo Svizzera » Lugano

ore: 04:50 - Osservazioni Meteo Lugano
Lat. 46° 0' N Lon. 8° 58' E Alt. 273 metri s.l.m.

coperto_pioggia Europe/Zurich

15 °C

Pioggia Debole

Temp. 24 Ore

13 °C

15 °C

Nord

1.8 Km/h

Dew point 15 °C

Umidità 100 %

Visibilità  5 Km

Il sole sorge alle ore 07:46

Il sole tramonta alle ore 18:31

Data e Ora Cielo e Fenomeni T °C DP °C Um. % Pres. hPa Vis. km Vento km/h
Oggi h: 04:50 coperto_pioggia Pioggia Debole 15 15 100 1016 5 N 1.8
Oggi h: 04:20 molto_nuvoloso Molto Nuvoloso 15 15 100 1016 5 N 5.5
Oggi h: 03:50 coperto_pioggia Pioggia Debole 15 15 100 1016 5 N 3.7
Oggi h: 03:20 coperto_pioggia Pioggia Debole 15 15 100 1016 4 N 1.8
Oggi h: 02:50 coperto_pioggia Pioggia Debole 15 15 100 1016 3 N 3.7
Oggi h: 02:20 coperto_pioggia Pioggia Debole 15 15 100 1016 4 N 3.7
Oggi h: 01:50 coperto_pioggia Pioggia 15 15 100 1016 6 N 3.7
Oggi h: 01:20 coperto_pioggia Pioggia Debole 15 15 100 1016 3 N 3.7
Oggi h: 00:50 foschia Foschia 15 15 100 1016 4 N 3.7
Oggi h: 00:20 coperto_pioggia Pioggia Debole 15 15 100 1016 10 N 3.7
Ieri h: 23:20 coperto_pioggia Pioggia 14 14 100 1016 6 N 7.4
Ieri h: 22:50 coperto_pioggia Pioggia Debole 15 15 100 1016 10 N 3.7
Ieri h: 22:20 coperto_pioggia Pioggia Debole 14 14 100 1016 3 N 1.8
Ieri h: 21:50 coperto_pioggia Pioggia 14 14 100 1016 2 N 1.8
Ieri h: 21:20 coperto_pioggia Pioggia 14 14 100 1015 2 N 3.7
Ieri h: 20:50 coperto_pioggia Pioggia Debole 14 14 100 1015 5 N 1.8
Ieri h: 20:20 coperto_pioggia Pioggia Debole 14 14 100 1015 5 N 1.8
Ieri h: 19:50 coperto_pioggia Pioggia 14 14 100 1016 4 N 1.8
Ieri h: 19:20 molto_nuvoloso Molto Nuvoloso 14 14 100 1015 10 N 1.8
Ieri h: 18:50 molto_nuvoloso Molto Nuvoloso 14 14 100 1015 10 N 5.5
Ieri h: 17:50 nuvoloso_piovaschi Rovescio di Pioggia 14 14 100 1015 10 N 3.7
Ieri h: 17:20 coperto_pioggia Pioggia Debole 14 14 100 1015 6 N 3.7
Ieri h: 16:50 coperto_pioggia Pioggia Debole 14 14 100 1015 6 N 3.7
Ieri h: 16:20 coperto_pioggia Pioggia Debole 14 14 100 1015 6 N 1.8
Ieri h: 15:50 coperto_pioggia Pioggia Debole 14 14 100 1015 7 N 1.8
Ieri h: 15:20 coperto_pioggia Pioggia Debole 14 14 100 1015 8 N 1.8
Ieri h: 14:50 coperto_pioggia Pioggia Debole 14 14 100 1015 8 N 1.8
Ieri h: 14:20 coperto_pioggia Pioggia Debole 14 14 100 1015 6 N 3.7
Ieri h: 13:50 foschia Foschia Debole Rovescio di Pioggia 14 14 100 1016 4 N 1.8
Ieri h: 13:20 foschia Foschia Debole Rovescio di Pioggia 14 14 100 1016 5 N 1.8
Ieri h: 12:50 foschia Foschia Debole Rovescio di Pioggia 14 14 100 1016 5 N 1.8
Ieri h: 12:20 foschia Foschia Debole Rovescio di Pioggia 14 14 100 1016 4 N 1.8
Ieri h: 11:50 foschia Foschia Rovescio di Pioggia 14 14 100 1016 3 N 3.7
Ieri h: 11:20 foschia Foschia Rovescio di Pioggia 14 14 100 1016 3 N 1.8
Ieri h: 10:50 foschia Foschia Rovescio di Pioggia 14 14 100 1015 3 N 3.7
Ieri h: 10:20 foschia Foschia Rovescio di Pioggia 14 14 100 1015 3 N 3.7
Ieri h: 09:50 nuvoloso_piovaschi Debole Rovescio di Pioggia 14 14 100 1015 4 N 3.7
Ieri h: 09:20 nuvoloso_piovaschi Debole Rovescio di Pioggia 14 14 100 1015 4 N 5.5
Ieri h: 08:50 nuvoloso_piovaschi Rovescio di Pioggia 14 14 100 1015 4 N 3.7
Ieri h: 08:20 molto_nuvoloso Rovescio nelle Vicinanze 14 13 93 1015 5 N 3.7
Ieri h: 07:50 molto_nuvoloso Rovescio nelle Vicinanze 14 13 93 1015 4 N 3.7
Ieri h: 07:20 coperto_pioggia Pioviggine Leggera 13 13 100 1015 4 N 3.7
Ieri h: 06:50 coperto_pioggia Pioggia Debole 13 13 100 1015 4 N 1.8
Ieri h: 06:20 coperto_pioggia Pioggia Debole 14 14 100 1015 2 N 1.8
Ieri h: 05:50 coperto_pioggia Pioggia Debole 13 13 100 1015 2 N 3.7